Weather in Dubrovka

Russia / Pskov Oblast     57°32′41″N   29°45′40″E
temp.,
°C
wind,
m/s
gust,
m/s
humid.,
%
clouds,
%
prec.,
mm/h
press.,
hPa
HPBL,
m
14 april, wed
wed1400:00+7nnw4790100 3.3 1018343
03:00+5nnw5885100 6.1 1018353
06:00+3nnw5984100 2.4 1018430
09:00+3nnw51083100 3.8 1019482
12:00+4n4873100 0.1 1020539
15:00+4n3771100 0.1 1021519
18:00+4nne2775100 0.0 1022340
21:00+4nne2880100 0.0 1023284
15 april, thu
thu1500:00+2nne3108892 0.0 1024261
03:00+2nne41292100 0.0 1024390
06:00+1nne51484100 0.0 1024492
09:00+4nne61475100 0.0 1025645
12:00+7ne71164100 0.0 1025935
15:00+8ne81061100 0.0 10241142
18:00+7ne61165100 0.0 10241075
21:00+6ene61274100 0.4 1025879
16 april, fri
fri1600:00+5ne61282100 0.7 1025720
03:00+4ne61281100 0.8 1025570
06:00+3ne51283100 0.0 1025519
09:00+5ne6117590 0.0 1025605
12:00+8ene696896 0.0 1025841
15:00+8ene51080100 0.6 1025758
18:00+10ene61172100 0.2 1025851
21:00+8ene51274100 0.2 1026495
17 april, sat
sat1700:00+5ene41274100 0.0 1028370
03:00+4ene4127698 0.0 1028335
06:00+3ene41181100 0.0 1029329
09:00+6ene5106999 0.0 1029473
12:00+11e685640 0.0 1029959
15:00+13e674914 0.0 10291352
18:00+13e575156 0.0 10281247
21:00+7ene3106464 0.0 1029210
18 april, sun
sun1800:00+5ene3107343 0.0 1030213
03:00+3e398172 0.0 1030184
06:00+2e388599 0.0 1030161
09:00+7e48645 0.0 1030380
12:00+12ese574651 0.0 10301123
15:00+14ese56405 0.0 10291547
18:00+13e364652 0.0 1029976
21:00+8e34655 0.0 103066